Location: Unspecified
(33.6682°S, 0.0000°E)
Time: 17:37:18
(UTC+00:00)

Vanguard 1 - Pass Details

Date: 28 June 2019
Orbit: 653 x 3830 km, 34.3° (Epoch: 17 July)

Event Time Altitude Azimuth Distance (km) Brightness Sun altitude
Rises 17:33:49 0° 258° (WSW) 4,326 14.4 -6.9°
Reaches altitude 10° 17:36:09 10° 259° (W) 3,632 13.9 -7.4°
Maximum altitude 17:46:02 77° 343° (NNW) 2,281 12.0 -9.3°
Drops below altitude 10° 18:04:41 10° 65° (ENE) 6,382 13.8 -12.9°
Sets 18:10:23 0° 65° (ENE) 7,699 14.2 -14.0°
